Regional Weather Roundup
Issued by NWS

Home | Current Version | Previous Version | Text Only | Print | Product List | Glossary On
Versions: 1 2 3 4 5 6 7 8 9 10 11 12 13 14 15 16 17 18 19 20 21 22 23 24 25 26 27 28 29 30 31 32 33 34 35 36 37 38 39 40 41 42 43 44 45 46 47 48 49 50
000
ASUS43 KLMK 250510
RWRKY
KENTUCKY REGIONAL WEATHER ROUNDUP
NATIONAL WEATHER SERVICE LOUISVILLE KY
100 AM EDT MON MAY 25 2015

NOTE "FAIR" INDICATES FEW OR NO CLOUDS BELOW 12,000 FEET
WITH NO SIGNIFICANT WEATHER AND/OR OBSTRUCTIONS TO VISIBILITY.

KYZ001>023-026-027-061>063-070>075-250600-
WESTERN AND SOUTH CENTRAL KENTUCKY

CITY           SKY/WX    TMP DP  RH WIND       PRES   REMARKS
PADUCAH        CLOUDY    72  65  78 S10G21    30.01F
HENDERSON      CLOUDY    72  63  73 S12       30.02F
OWENSBORO      CLOUDY    76  66  71 S17       30.06S
HOPKINSVILLE   MOCLDY    70  67  91 SE7       30.07F
BOWLING GREEN  CLOUDY    76  61  59 S10       30.11F
GLASGOW        CLOUDY    74  58  56 S7        30.13F
$$

KYZ024-025-028>034-038-045-046-053-250600-
NORTH CENTRAL KENTUCKY

CITY           SKY/WX    TMP DP  RH WIND       PRES   REMARKS
LOUISVILLE/SDF MOCLDY    77  58  51 S14       30.10F
LOUISVILLE/LOU MOCLDY    75  57  53 S8        30.11F
FORT KNOX      CLOUDY    74  60  61 SE12      30.09F
$$

KYZ035>037-039>044-047>052-055>060-089>105-250600-
NORTHEAST KENTUCKY

CITY           SKY/WX    TMP DP  RH WIND       PRES   REMARKS
LEXINGTON      PTCLDY    70  54  56 S10       30.16S
COVINGTON      PTCLDY    70  53  54 S9        30.13S
FRANKFORT      MOCLDY    71  54  54 S7        30.13F
$$

KYZ054-064>069-076>088-106>120-250600-
SOUTHEAST KENTUCKY

CITY           SKY/WX    TMP DP  RH WIND       PRES   REMARKS
JACKSON        CLEAR     67  51  56 CALM      30.22S
LONDON         MOCLDY    67  50  54 CALM      30.21S
SOMERSET       MOCLDY    66  54  63 CALM      30.20F
MIDDLESBORO    PTCLDY    59  56  88 CALM      30.24F
MONTICELLO     MOCLDY    73  57  57 S10       30.20F
$$




USA.gov is the U.S. government's official web portal to all federal, state and local government web resources and services.